Scroll down
FLIGHT INFORMATION
Cathay Pacific

CPA1

At Arrival Gate

KPAE
 VHHH
DATE: 2018-08-18
GATE:  -
GATE DEPARTURE: 19:00
TAKEOFF: 19:10
DATE: 2018-08-19
GATE:  -
LANDING: 07:38
GATE ARRIVAL: 07:53
FLIGHT DATA
Crew: 
Speed: 
941 kph
Altitude: 
40,030 ft
Stage Length: 
10,411.3 km
Block Time: 
12.8 hrs
Flight Time: 
12.5 hrs
Fuel Used: 
100,050 kg
Cleared Route: 
TRACK DATA
50,000 ft 1,000 kts
AIRCRAFT INFO AND CUMULATIVE STATS
Aircraft Type: 
B748F
Registration: 
SELCAL: 
CRHM
MSN/LN: 
39238 / 1427
Operator: 
Total Flights: 
6
Total Block Time: 
29.3 hrs
Total Flight Time: 
27.7 hrs
Total Fuel Used: 
256,801 kg
DATALINK LOG | Newest first | Current as of: 2022-09-27 07:34:27
LABEL SEQUENCE CONTENT Dn/Up
QD534207:53 45.4▼ Dn
QC384207:38▼ Dn
462851/OV /TM 0728 /FL100 /TP B748 /SK BKN /WX RN VIS CLR /TA 29 /WV 250/10 /TB LGT /RM STORMS RAIN AT 10K▼ Dn
GA2639ADVANCED GATE ASSIGNMENTS NOT YET AVAILABLE AT THIS AIRPORT▲ Up
GR0115VHHH▼ Dn
2U1441VHHH 190300Z 24007KT 9999 FEW012 SCT025 29/27 Q1003 NOSIG▲ Up
2S0471VHHH▼ Dn
2U1925VHHH 190000Z VRB03KT 9999 -TSRA FEW008 FEW012CB SCT020 27/26 Q1003 TEMPO 3000 -TSRA SHRA FEW010CB SCT020▲ Up
2S1758VHHH▼ Dn
460834/OV XXX /TM 2208 /FL360 /TP B748 /SK OVC /TA -23 /WV 154/35 /TB LGT /RM FEW BUMPS AROUND▼ Dn
QB101219:10▼ Dn
5U0622TAF VHHH 181100Z 1812/1918 23010KT 9999 FEW015 SCT030 TX32/1906Z TN27/1822Z TEMPO 1812/1824 VRB05KT TEMPO 1820/1902 3000 -TSRA SHRA FEW010CB SCT020 TEMPO 1902/1906 4000 SHRA FEW012CB SCT025 TEMPO 1912/1918 VRB05KT▲ Up
5U0622KPAE 181142Z 1812/1912 34003KT P6SM SKC FM181600 36004KT P6SM SKC FM181800 34006KT P6SM SKC FM190200 VRB03KT P6SM SKC▲ Up
5S0513KPAE VHHH▼ Dn
2U0622KPAE 181653Z VRB03KT 9SM CLR 18/13 A3024 RMK AO2 SLP240 T01780128▲ Up
2S0459KPAE▼ Dn
QA004319:00 266▼ Dn


AIRCRAFT HISTORY
FLIGHT DATE FLIGHT NO. ORIGIN DESTINATION CLEARED ROUTE BLOCK TIME FLIGHT TIME FUEL USED PILOT
2021-07-10CPA710LFBO LIMC LFBO MEN NINUN MEZIN LATAM ROMAM NEDRU RILIP BLONA TOSMI LAPRI KUMIN KODOK TOP ASTIG LIMC1.2 hrs1 hrs27,415 lbKevin Hall
2021-07-10CPA710EGLL LFBO EGLL MAXIT MID DRAKE SITET ETRAT DVL LGL SORAP BENAR VANAD AMB SOPIL BALAN EVPOK NARAK LFBO1.4 hrs1.2 hrs30,171 lbKevin Hall
2019-10-26EDDF EGLL EDDF SOBRA ULKIG RUDOT BITBU MAKIK GOPAS DEMUL RITAX REMBA BUB DENUT BUB45 COA KEGIT SASKI INLOD SUMUM LOGAN EGLL1.4 hrs1.1 hrs30,534 lbSteven James
2019-09-08CPA908VHHX EDDF VHHX BEKOL IDUMA SHL YIN VEROK NODOG QP MAMSI SJG AKNAV ELKAL ESNIB KAGRA KWE QNX IDSEG UKEGO XYO ZYG WFX JTG CDX OMBON ELPAN BESMI XIXAN SUNUV BUKPU ANDIM LELUX LAXEV NOGEX OMGUP IGDON TODOD NIXUK IBANO BIKNO IPMUN KEXAB FKG VARMI UGPEL IKARA OMKEN SALMO PIBIG TCH SARIN AGUSA TOLKI AGZ OSNER DODEM TAGAL GORBO ULKAP DIMUT KRG BANOS AST DIDAL ATBAN ATNON LATKO GITNA DOKUT KST TITUR OLMAD LANUD NINRA NOGBA RG LUNIN TILMU IPMAS TEMBE UGDOR RITOP UW UD MB RP CW ABOKA MF DIPAT LAPUR AR MAKSI BG TU SUPEK TEGLU LEGSI BENIM RAMBE LAFAT UPASI VABER SUW KULEK MAGAN IDEXU GOVEN LUROS POGAB OLBIK TADUV OSKAT LASTO ABLUM ROBEL GAPLA DEMAB SOLVU KERAX EDDF11.9 hrs11.6 hrs248,724 lbChris Makris
2018-08-27CPA2VHHH VHHX 0.6 hrs0.3 hrs8,732 lb-HIDDEN-
2018-08-18CPA1KPAE VHHH 12.8 hrs12.5 hrs220,573 lbMichael Roth